Year,Month,Day,Hour,Minute,Value (Times are PST for temperature in C)
2018,05,18,00,00,13.40
2018,05,18,00,01,13.40
2018,05,18,00,02,13.30
2018,05,18,00,03,13.30
2018,05,18,00,04,13.30
2018,05,18,00,05,13.30
2018,05,18,00,06,13.30
2018,05,18,00,07,13.30
2018,05,18,00,08,13.20
2018,05,18,00,09,13.20
2018,05,18,00,10,13.20
2018,05,18,00,11,13.20
2018,05,18,00,12,13.20
2018,05,18,00,13,13.20
2018,05,18,00,14,13.20
2018,05,18,00,15,13.10
2018,05,18,00,16,13.10
2018,05,18,00,17,13.10
2018,05,18,00,18,13.10
2018,05,18,00,19,13.10
2018,05,18,00,20,13.10
2018,05,18,00,21,13.10
2018,05,18,00,22,13.10
2018,05,18,00,23,13.00
2018,05,18,00,24,13.00
2018,05,18,00,25,13.00
2018,05,18,00,26,12.90
2018,05,18,00,27,12.90
2018,05,18,00,28,12.90
2018,05,18,00,29,12.90
2018,05,18,00,30,12.90
2018,05,18,00,31,12.80
2018,05,18,00,32,12.80
2018,05,18,00,33,12.80
2018,05,18,00,34,12.80
2018,05,18,00,35,12.80
2018,05,18,00,36,12.80
2018,05,18,00,37,12.80
2018,05,18,00,38,12.70
2018,05,18,00,39,12.70
2018,05,18,00,40,12.70
2018,05,18,00,41,12.70
2018,05,18,00,42,12.70
2018,05,18,00,43,12.70
2018,05,18,00,44,12.70
2018,05,18,00,45,12.70
2018,05,18,00,46,12.70
2018,05,18,00,47,12.70
2018,05,18,00,48,12.70
2018,05,18,00,49,12.70
2018,05,18,00,50,12.60
2018,05,18,00,51,12.60
2018,05,18,00,52,12.60
2018,05,18,00,53,12.60
2018,05,18,00,54,12.60
2018,05,18,00,55,12.60
2018,05,18,00,56,12.50
2018,05,18,00,57,12.50
2018,05,18,00,58,12.40
2018,05,18,00,59,12.40
2018,05,18,01,00,12.40
2018,05,18,01,01,12.40
2018,05,18,01,02,12.40
2018,05,18,01,03,12.40
2018,05,18,01,04,12.40
2018,05,18,01,05,12.40
2018,05,18,01,06,12.40
2018,05,18,01,07,12.40
2018,05,18,01,08,12.40
2018,05,18,01,09,12.40
2018,05,18,01,10,12.50
2018,05,18,01,11,12.50
2018,05,18,01,12,12.50
2018,05,18,01,13,12.50
2018,05,18,01,14,12.50
2018,05,18,01,15,12.60
2018,05,18,01,16,12.60
2018,05,18,01,17,12.60
2018,05,18,01,18,12.60
2018,05,18,01,19,12.60
2018,05,18,01,20,12.60
2018,05,18,01,21,12.60
2018,05,18,01,22,12.60
2018,05,18,01,23,12.60
2018,05,18,01,24,12.60
2018,05,18,01,25,12.60
2018,05,18,01,26,12.60
2018,05,18,01,27,12.60
2018,05,18,01,28,12.60
2018,05,18,01,29,12.60
2018,05,18,01,30,12.50
2018,05,18,01,31,12.50
2018,05,18,01,32,12.50
2018,05,18,01,33,12.50
2018,05,18,01,34,12.50
2018,05,18,01,35,12.40
2018,05,18,01,36,12.40
2018,05,18,01,37,12.40
2018,05,18,01,38,12.40
2018,05,18,01,39,12.40
2018,05,18,01,40,12.40
2018,05,18,01,41,12.40
2018,05,18,01,42,12.40
2018,05,18,01,43,12.40
2018,05,18,01,44,12.40
2018,05,18,01,45,12.40
2018,05,18,01,46,12.40
2018,05,18,01,47,12.40
2018,05,18,01,48,12.40
2018,05,18,01,49,12.30
2018,05,18,01,50,12.30
2018,05,18,01,51,12.30
2018,05,18,01,52,12.30
2018,05,18,01,53,12.30
2018,05,18,01,54,12.20
2018,05,18,01,55,12.20
2018,05,18,01,56,12.20
2018,05,18,01,57,12.10
2018,05,18,01,58,12.10
2018,05,18,01,59,12.10
2018,05,18,02,00,12.00
2018,05,18,02,01,12.00
2018,05,18,02,02,11.90
2018,05,18,02,03,11.90
2018,05,18,02,04,11.90
2018,05,18,02,05,11.90
2018,05,18,02,06,11.90
2018,05,18,02,07,11.90
2018,05,18,02,08,11.90
2018,05,18,02,09,11.90
2018,05,18,02,10,12.00
2018,05,18,02,11,12.00
2018,05,18,02,12,11.90
2018,05,18,02,13,11.90
2018,05,18,02,14,11.90
2018,05,18,02,15,11.90
2018,05,18,02,16,11.80
2018,05,18,02,17,11.80
2018,05,18,02,18,11.70
2018,05,18,02,19,11.70
2018,05,18,02,20,11.70
2018,05,18,02,21,11.70
2018,05,18,02,22,11.60
2018,05,18,02,23,11.60
2018,05,18,02,24,11.60
2018,05,18,02,25,11.60
2018,05,18,02,26,11.60
2018,05,18,02,27,11.60
2018,05,18,02,28,11.70
2018,05,18,02,29,11.70
2018,05,18,02,30,11.80
2018,05,18,02,31,11.80
2018,05,18,02,32,11.80
2018,05,18,02,33,11.80
2018,05,18,02,34,11.80
2018,05,18,02,35,11.80
2018,05,18,02,36,11.80
2018,05,18,02,37,11.70
2018,05,18,02,38,11.70
2018,05,18,02,39,11.60
2018,05,18,02,40,11.50
2018,05,18,02,41,11.40
2018,05,18,02,42,11.30
2018,05,18,02,43,11.30
2018,05,18,02,44,11.30
2018,05,18,02,45,11.20
2018,05,18,02,46,11.20
2018,05,18,02,47,11.20
2018,05,18,02,48,11.20
2018,05,18,02,49,11.10
2018,05,18,02,50,11.10
2018,05,18,02,51,11.10
2018,05,18,02,52,11.00
2018,05,18,02,53,11.00
2018,05,18,02,54,10.90
2018,05,18,02,55,10.90
2018,05,18,02,56,11.00
2018,05,18,02,57,11.00
2018,05,18,02,58,11.00
2018,05,18,02,59,11.00
2018,05,18,03,00,11.00
2018,05,18,03,01,11.00
2018,05,18,03,02,11.00
2018,05,18,03,03,11.10
2018,05,18,03,04,11.10
2018,05,18,03,05,11.10
2018,05,18,03,06,11.10
2018,05,18,03,07,11.10
2018,05,18,03,08,11.10
2018,05,18,03,09,11.20
2018,05,18,03,10,11.20
2018,05,18,03,11,11.20
2018,05,18,03,12,11.20
2018,05,18,03,13,11.20
2018,05,18,03,14,11.20
2018,05,18,03,15,11.20
2018,05,18,03,16,11.20
2018,05,18,03,17,11.20
2018,05,18,03,18,11.20
2018,05,18,03,19,11.20
2018,05,18,03,20,11.20
2018,05,18,03,21,11.20
2018,05,18,03,22,11.20
2018,05,18,03,23,11.20
2018,05,18,03,24,11.20
2018,05,18,03,25,11.20
2018,05,18,03,26,11.20
2018,05,18,03,27,11.20
2018,05,18,03,28,11.20
2018,05,18,03,29,11.20
2018,05,18,03,30,11.20
2018,05,18,03,31,11.20
2018,05,18,03,32,11.20
2018,05,18,03,33,11.20
2018,05,18,03,34,11.20
2018,05,18,03,35,11.20
2018,05,18,03,36,11.20
2018,05,18,03,37,11.20
2018,05,18,03,38,11.20
2018,05,18,03,39,11.20
2018,05,18,03,40,11.20
2018,05,18,03,41,11.20
2018,05,18,03,42,11.20
2018,05,18,03,43,11.10
2018,05,18,03,44,11.10
2018,05,18,03,45,11.10
2018,05,18,03,46,11.10
2018,05,18,03,47,11.10
2018,05,18,03,48,11.10
2018,05,18,03,49,11.00
2018,05,18,03,50,11.00
2018,05,18,03,51,11.00
2018,05,18,03,52,11.00
2018,05,18,03,53,10.90
2018,05,18,03,54,10.90
2018,05,18,03,55,10.90
2018,05,18,03,56,10.90
2018,05,18,03,57,10.90
2018,05,18,03,58,10.80
2018,05,18,03,59,10.80
2018,05,18,04,00,10.80
2018,05,18,04,01,10.80
2018,05,18,04,02,10.80
2018,05,18,04,03,10.70
2018,05,18,04,04,10.70
2018,05,18,04,05,10.70
2018,05,18,04,06,10.70
2018,05,18,04,07,10.70
2018,05,18,04,08,10.70
2018,05,18,04,09,10.70
2018,05,18,04,10,10.70
2018,05,18,04,11,10.60
2018,05,18,04,12,10.60
2018,05,18,04,13,10.60
2018,05,18,04,14,10.60
2018,05,18,04,15,10.60
2018,05,18,04,16,10.60
2018,05,18,04,17,10.60
2018,05,18,04,18,10.60
2018,05,18,04,19,10.60
2018,05,18,04,20,10.60
2018,05,18,04,21,10.60
2018,05,18,04,22,10.60
2018,05,18,04,23,10.60
2018,05,18,04,24,10.60
2018,05,18,04,25,10.60
2018,05,18,04,26,10.70
2018,05,18,04,27,10.70
2018,05,18,04,28,10.70
2018,05,18,04,29,10.70
2018,05,18,04,30,10.70
2018,05,18,04,31,10.70
2018,05,18,04,32,10.70
2018,05,18,04,33,10.80
2018,05,18,04,34,10.80
2018,05,18,04,35,10.80
2018,05,18,04,36,10.80
2018,05,18,04,37,10.80
2018,05,18,04,38,10.80
2018,05,18,04,39,10.80
2018,05,18,04,40,10.80
2018,05,18,04,41,10.80
2018,05,18,04,42,10.80
2018,05,18,04,43,10.80
2018,05,18,04,44,10.80
2018,05,18,04,45,10.80
2018,05,18,04,46,10.80
2018,05,18,04,47,10.80
2018,05,18,04,48,10.80
2018,05,18,04,49,10.80
2018,05,18,04,50,10.80
2018,05,18,04,51,10.80
2018,05,18,04,52,10.80
2018,05,18,04,53,10.80
2018,05,18,04,54,10.70
2018,05,18,04,55,10.70
2018,05,18,04,56,10.70
2018,05,18,04,57,10.70
2018,05,18,04,58,10.70
2018,05,18,04,59,10.70
2018,05,18,05,00,10.70
2018,05,18,05,01,10.70
2018,05,18,05,02,10.70
2018,05,18,05,03,10.60
2018,05,18,05,04,10.60
2018,05,18,05,05,10.60
2018,05,18,05,06,10.60
2018,05,18,05,07,10.60
2018,05,18,05,08,10.60
2018,05,18,05,09,10.60
2018,05,18,05,10,10.60
2018,05,18,05,11,10.60
2018,05,18,05,12,10.60
2018,05,18,05,13,10.60
2018,05,18,05,14,10.60
2018,05,18,05,15,10.60
2018,05,18,05,16,10.60
2018,05,18,05,17,10.60
2018,05,18,05,18,10.60
2018,05,18,05,19,10.60
2018,05,18,05,20,10.60
2018,05,18,05,21,10.70
2018,05,18,05,22,10.70
2018,05,18,05,23,10.70
2018,05,18,05,24,10.70
2018,05,18,05,25,10.70
2018,05,18,05,26,10.70
2018,05,18,05,27,10.70
2018,05,18,05,28,10.70
2018,05,18,05,29,10.70
2018,05,18,05,30,10.70
2018,05,18,05,31,10.70
2018,05,18,05,32,10.70
2018,05,18,05,33,10.70
2018,05,18,05,34,10.70
2018,05,18,05,35,10.70
2018,05,18,05,36,10.70
2018,05,18,05,37,10.70
2018,05,18,05,38,10.70
2018,05,18,05,39,10.70
2018,05,18,05,40,10.70
2018,05,18,05,41,10.60
2018,05,18,05,42,10.60
2018,05,18,05,43,10.60
2018,05,18,05,44,10.60
2018,05,18,05,45,10.60
2018,05,18,05,46,10.60
2018,05,18,05,47,10.60
2018,05,18,05,48,10.60
2018,05,18,05,49,10.60
2018,05,18,05,50,10.60
2018,05,18,05,51,10.50
2018,05,18,05,52,10.50
2018,05,18,05,53,10.50
2018,05,18,05,54,10.50
2018,05,18,05,55,10.40
2018,05,18,05,56,10.40
2018,05,18,05,57,10.40
2018,05,18,05,58,10.50
2018,05,18,05,59,10.50
2018,05,18,06,00,10.50
2018,05,18,06,01,10.50
2018,05,18,06,02,10.50
2018,05,18,06,03,10.50
2018,05,18,06,04,10.50
2018,05,18,06,05,10.50
2018,05,18,06,06,10.50
2018,05,18,06,07,10.50
2018,05,18,06,08,10.50
2018,05,18,06,09,10.50
2018,05,18,06,10,10.50
2018,05,18,06,11,10.40
2018,05,18,06,12,10.40
2018,05,18,06,13,10.40
2018,05,18,06,14,10.40
2018,05,18,06,15,10.40
2018,05,18,06,16,10.40
2018,05,18,06,17,10.40
2018,05,18,06,18,10.40
2018,05,18,06,19,10.40
2018,05,18,06,20,10.40
2018,05,18,06,21,10.40
2018,05,18,06,22,10.40
2018,05,18,06,23,10.40
2018,05,18,06,24,10.40
2018,05,18,06,25,10.40
2018,05,18,06,26,10.40
2018,05,18,06,27,10.40
2018,05,18,06,28,10.40
2018,05,18,06,29,10.40
2018,05,18,06,30,10.40
2018,05,18,06,31,10.40
2018,05,18,06,32,10.40
2018,05,18,06,33,10.40
2018,05,18,06,34,10.40
2018,05,18,06,35,10.40
2018,05,18,06,36,10.50
2018,05,18,06,37,10.50
2018,05,18,06,38,10.50
2018,05,18,06,39,10.50
2018,05,18,06,40,10.60
2018,05,18,06,41,10.60
2018,05,18,06,42,10.60
2018,05,18,06,43,10.60
2018,05,18,06,44,10.60
2018,05,18,06,45,10.60
2018,05,18,06,46,10.70
2018,05,18,06,47,10.70
2018,05,18,06,48,10.70
2018,05,18,06,49,10.70
2018,05,18,06,50,10.70
2018,05,18,06,51,10.70
2018,05,18,06,52,10.80
2018,05,18,06,53,10.80
2018,05,18,06,54,10.80
2018,05,18,06,55,10.80
2018,05,18,06,56,10.80
2018,05,18,06,57,10.80
2018,05,18,06,58,10.90
2018,05,18,06,59,10.90
2018,05,18,07,00,10.90
2018,05,18,07,01,11.00
2018,05,18,07,02,11.00
2018,05,18,07,03,11.10
2018,05,18,07,04,11.10
2018,05,18,07,05,11.20
2018,05,18,07,06,11.30
2018,05,18,07,07,11.40
2018,05,18,07,08,11.40
2018,05,18,07,09,11.50
2018,05,18,07,10,11.50
2018,05,18,07,11,11.50
2018,05,18,07,12,11.50
2018,05,18,07,13,11.50
2018,05,18,07,14,11.60
2018,05,18,07,15,11.60
2018,05,18,07,16,11.60
2018,05,18,07,17,11.60
2018,05,18,07,18,11.60
2018,05,18,07,19,11.70
2018,05,18,07,20,11.70
2018,05,18,07,21,11.80
2018,05,18,07,22,11.80
2018,05,18,07,23,11.90
2018,05,18,07,24,12.00
2018,05,18,07,25,12.00
2018,05,18,07,26,12.10
2018,05,18,07,27,12.10
2018,05,18,07,28,12.20
2018,05,18,07,29,12.20
2018,05,18,07,30,12.20
2018,05,18,07,31,12.20
2018,05,18,07,32,12.20
2018,05,18,07,33,12.20
2018,05,18,07,34,12.10
2018,05,18,07,35,12.10
2018,05,18,07,36,12.00
2018,05,18,07,37,12.00
2018,05,18,07,38,11.90
2018,05,18,07,39,11.90
2018,05,18,07,40,11.90
2018,05,18,07,41,11.80
2018,05,18,07,42,11.80
2018,05,18,07,43,11.80
2018,05,18,07,44,11.80
2018,05,18,07,45,11.80
2018,05,18,07,46,11.80
2018,05,18,07,47,11.80
2018,05,18,07,48,11.80
2018,05,18,07,49,11.80
2018,05,18,07,50,11.90
2018,05,18,07,51,11.90
2018,05,18,07,52,12.00
2018,05,18,07,53,12.00
2018,05,18,07,54,12.10
2018,05,18,07,55,12.10
2018,05,18,07,56,12.20
2018,05,18,07,57,12.20
2018,05,18,07,58,12.20
2018,05,18,07,59,12.30
2018,05,18,08,00,12.30
2018,05,18,08,01,12.30
2018,05,18,08,02,12.30
2018,05,18,08,03,12.30
2018,05,18,08,04,12.20
2018,05,18,08,05,12.20
2018,05,18,08,06,12.20
2018,05,18,08,07,12.20
2018,05,18,08,08,12.10
2018,05,18,08,09,12.10
2018,05,18,08,10,12.00
2018,05,18,08,11,12.00
2018,05,18,08,12,12.00
2018,05,18,08,13,12.00
2018,05,18,08,14,12.00
2018,05,18,08,15,12.10
2018,05,18,08,16,12.10
2018,05,18,08,17,12.10
2018,05,18,08,18,12.20
2018,05,18,08,19,12.20
2018,05,18,08,20,12.20
2018,05,18,08,21,12.30
2018,05,18,08,22,12.30
2018,05,18,08,23,12.30
2018,05,18,08,24,12.30
2018,05,18,08,25,12.40
2018,05,18,08,26,12.40
2018,05,18,08,27,12.40
2018,05,18,08,28,12.50
2018,05,18,08,29,12.50
2018,05,18,08,30,12.50
2018,05,18,08,31,12.60
2018,05,18,08,32,12.60
2018,05,18,08,33,12.60
2018,05,18,08,34,12.60
2018,05,18,08,35,12.60
2018,05,18,08,36,12.50
2018,05,18,08,37,12.50
2018,05,18,08,38,12.50
2018,05,18,08,39,12.40
2018,05,18,08,40,12.40
2018,05,18,08,41,12.40
2018,05,18,08,42,12.40
2018,05,18,08,43,12.40
2018,05,18,08,44,12.40
2018,05,18,08,45,12.40
2018,05,18,08,46,12.40
2018,05,18,08,47,12.50
2018,05,18,08,48,12.50
2018,05,18,08,49,12.60
2018,05,18,08,50,12.60
2018,05,18,08,51,12.70
2018,05,18,08,52,12.80
2018,05,18,08,53,12.90
2018,05,18,08,54,13.00
2018,05,18,08,55,13.10
2018,05,18,08,56,13.20
2018,05,18,08,57,13.30
2018,05,18,08,58,13.50
2018,05,18,08,59,13.50
2018,05,18,09,00,13.60
2018,05,18,09,01,13.60
2018,05,18,09,02,13.70
2018,05,18,09,03,13.70
2018,05,18,09,04,13.70
2018,05,18,09,05,13.70
2018,05,18,09,06,13.70
2018,05,18,09,07,13.70
2018,05,18,09,08,13.70
2018,05,18,09,09,13.70
2018,05,18,09,10,13.80
2018,05,18,09,11,13.80
2018,05,18,09,12,13.80
2018,05,18,09,13,13.80
2018,05,18,09,14,13.80
2018,05,18,09,15,13.90
2018,05,18,09,16,13.90
2018,05,18,09,17,14.00
2018,05,18,09,18,14.00
2018,05,18,09,19,14.10
2018,05,18,09,20,14.10
2018,05,18,09,21,14.10
2018,05,18,09,22,14.10
2018,05,18,09,23,14.10
2018,05,18,09,24,14.10
2018,05,18,09,25,14.10
2018,05,18,09,26,14.20
2018,05,18,09,27,14.30
2018,05,18,09,28,14.30
2018,05,18,09,29,14.40
2018,05,18,09,30,14.40
2018,05,18,09,31,14.40
2018,05,18,09,32,14.40
2018,05,18,09,33,14.40
2018,05,18,09,34,14.50
2018,05,18,09,35,14.60
2018,05,18,09,36,14.60
2018,05,18,09,37,14.70
2018,05,18,09,38,14.60
2018,05,18,09,39,14.60
2018,05,18,09,40,14.60
2018,05,18,09,41,14.60
2018,05,18,09,42,14.60
2018,05,18,09,43,14.60
2018,05,18,09,44,14.60
2018,05,18,09,45,14.70
2018,05,18,09,46,14.80
2018,05,18,09,47,14.80
2018,05,18,09,48,14.80
2018,05,18,09,49,14.80
2018,05,18,09,50,14.80
2018,05,18,09,51,14.80
2018,05,18,09,52,14.80
2018,05,18,09,53,14.90
2018,05,18,09,54,15.00
2018,05,18,09,55,15.10
2018,05,18,09,56,15.20
2018,05,18,09,57,15.30
2018,05,18,09,58,15.50
2018,05,18,09,59,15.60
2018,05,18,10,00,15.80
2018,05,18,10,01,15.90
2018,05,18,10,02,16.00
2018,05,18,10,03,16.10
2018,05,18,10,04,16.20
2018,05,18,10,05,16.20
2018,05,18,10,06,16.30
2018,05,18,10,07,16.30
2018,05,18,10,08,16.40
2018,05,18,10,09,16.50
2018,05,18,10,10,16.60
2018,05,18,10,11,16.70
2018,05,18,10,12,16.70
2018,05,18,10,13,16.80
2018,05,18,10,14,16.80
2018,05,18,10,15,16.80
2018,05,18,10,16,16.80
2018,05,18,10,17,16.80
2018,05,18,10,18,16.90
2018,05,18,10,19,16.90
2018,05,18,10,20,16.90
2018,05,18,10,21,16.90
2018,05,18,10,22,16.90
2018,05,18,10,23,16.90
2018,05,18,10,24,16.80
2018,05,18,10,25,16.70
2018,05,18,10,26,16.70
2018,05,18,10,27,16.60
2018,05,18,10,28,16.60
2018,05,18,10,29,16.60
2018,05,18,10,30,16.50
2018,05,18,10,31,16.60
2018,05,18,10,32,16.60
2018,05,18,10,33,16.60
2018,05,18,10,34,16.60
2018,05,18,10,35,16.60
2018,05,18,10,36,16.60
2018,05,18,10,37,16.60
2018,05,18,10,38,16.70
2018,05,18,10,39,16.60
2018,05,18,10,40,16.60
2018,05,18,10,41,16.70
2018,05,18,10,42,16.70
2018,05,18,10,43,16.70
2018,05,18,10,44,16.70
2018,05,18,10,45,16.80
2018,05,18,10,46,16.80
2018,05,18,10,47,16.70
2018,05,18,10,48,16.70
2018,05,18,10,49,16.70
2018,05,18,10,50,16.70
2018,05,18,10,51,16.70
2018,05,18,10,52,16.70
2018,05,18,10,53,16.70
2018,05,18,10,54,16.80
2018,05,18,10,55,16.80
2018,05,18,10,56,16.80
2018,05,18,10,57,16.80
2018,05,18,10,58,16.90
2018,05,18,10,59,16.90
2018,05,18,11,00,16.90
2018,05,18,11,01,16.90
2018,05,18,11,02,17.00
2018,05,18,11,03,17.00
2018,05,18,11,04,17.00
2018,05,18,11,05,17.10
2018,05,18,11,06,17.20
2018,05,18,11,07,17.30
2018,05,18,11,08,17.40
2018,05,18,11,09,17.50
2018,05,18,11,10,17.50
2018,05,18,11,11,17.40
2018,05,18,11,12,17.40
2018,05,18,11,13,17.40
2018,05,18,11,14,17.40
2018,05,18,11,15,17.30
2018,05,18,11,16,17.30
2018,05,18,11,17,17.30
2018,05,18,11,18,17.30
2018,05,18,11,19,17.30
2018,05,18,11,20,17.30
2018,05,18,11,21,17.30
2018,05,18,11,22,17.30
2018,05,18,11,23,17.20
2018,05,18,11,24,17.20
2018,05,18,11,25,17.20
2018,05,18,11,26,17.30
2018,05,18,11,27,17.30
2018,05,18,11,28,17.30
2018,05,18,11,29,17.40
2018,05,18,11,30,17.40
2018,05,18,11,31,17.50
2018,05,18,11,32,17.60
2018,05,18,11,33,17.60
2018,05,18,11,34,17.60
2018,05,18,11,35,17.70
2018,05,18,11,36,17.80
2018,05,18,11,37,17.80
2018,05,18,11,38,17.90
2018,05,18,11,39,17.90
2018,05,18,11,40,17.90
2018,05,18,11,41,18.00
2018,05,18,11,42,18.00
2018,05,18,11,43,18.10
2018,05,18,11,44,18.10
2018,05,18,11,45,18.10
2018,05,18,11,46,18.10
2018,05,18,11,47,18.00
2018,05,18,11,48,18.00
2018,05,18,11,49,18.00
2018,05,18,11,50,18.00
2018,05,18,11,51,18.00
2018,05,18,11,52,18.00
2018,05,18,11,53,18.00
2018,05,18,11,54,18.10
2018,05,18,11,55,18.20
2018,05,18,11,56,18.20
2018,05,18,11,57,18.20
2018,05,18,11,58,18.20
2018,05,18,11,59,18.20
2018,05,18,12,00,18.20
2018,05,18,12,01,18.20
2018,05,18,12,02,18.20
2018,05,18,12,03,18.20
2018,05,18,12,04,18.30
2018,05,18,12,05,18.30
2018,05,18,12,06,18.30
2018,05,18,12,07,18.30
2018,05,18,12,08,18.30
2018,05,18,12,09,18.30
2018,05,18,12,10,18.40
2018,05,18,12,11,18.40
2018,05,18,12,12,18.40
2018,05,18,12,13,18.40
2018,05,18,12,14,18.40
2018,05,18,12,15,18.40
2018,05,18,12,16,18.40
2018,05,18,12,17,18.30
2018,05,18,12,18,18.30
2018,05,18,12,19,18.30
2018,05,18,12,20,18.30
2018,05,18,12,21,18.30
2018,05,18,12,22,18.40
2018,05,18,12,23,18.40
2018,05,18,12,24,18.40
2018,05,18,12,25,18.40
2018,05,18,12,26,18.40
2018,05,18,12,27,18.50
2018,05,18,12,28,18.50
2018,05,18,12,29,18.60
2018,05,18,12,30,18.70
2018,05,18,12,31,18.70
2018,05,18,12,32,18.70
2018,05,18,12,33,18.80
2018,05,18,12,34,18.70
2018,05,18,12,35,18.60
2018,05,18,12,36,18.60
2018,05,18,12,37,18.60
2018,05,18,12,38,18.60
2018,05,18,12,39,18.70
2018,05,18,12,40,18.70
2018,05,18,12,41,18.70
2018,05,18,12,42,18.70
2018,05,18,12,43,18.70
2018,05,18,12,44,18.80
2018,05,18,12,45,18.80
2018,05,18,12,46,18.80
2018,05,18,12,47,18.80
2018,05,18,12,48,18.80
2018,05,18,12,49,18.80
2018,05,18,12,50,18.90
2018,05,18,12,51,18.90
2018,05,18,12,52,18.90
2018,05,18,12,53,18.90
2018,05,18,12,54,18.90
2018,05,18,12,55,18.90
2018,05,18,12,56,18.80
2018,05,18,12,57,18.80
2018,05,18,12,58,18.80
2018,05,18,12,59,18.80
2018,05,18,13,00,18.80
2018,05,18,13,01,18.70
2018,05,18,13,02,18.70
2018,05,18,13,03,18.70
2018,05,18,13,04,18.70
2018,05,18,13,05,18.70
2018,05,18,13,06,18.70
2018,05,18,13,07,18.80
2018,05,18,13,08,18.90
2018,05,18,13,09,18.90
2018,05,18,13,10,19.00
2018,05,18,13,11,19.10
2018,05,18,13,12,19.10
2018,05,18,13,13,19.20
2018,05,18,13,14,19.20
2018,05,18,13,15,19.20
2018,05,18,13,16,19.30
2018,05,18,13,17,19.30
2018,05,18,13,18,19.30
2018,05,18,13,19,19.30
2018,05,18,13,20,19.30
2018,05,18,13,21,19.30
2018,05,18,13,22,19.30
2018,05,18,13,23,19.20
2018,05,18,13,24,19.20
2018,05,18,13,25,19.20
2018,05,18,13,26,19.20
2018,05,18,13,27,19.20
2018,05,18,13,28,19.20
2018,05,18,13,29,19.10
2018,05,18,13,30,19.10
2018,05,18,13,31,19.10
2018,05,18,13,32,19.10
2018,05,18,13,33,19.10
2018,05,18,13,34,19.10
2018,05,18,13,35,19.20
2018,05,18,13,36,19.10
2018,05,18,13,37,19.10
2018,05,18,13,38,19.00
2018,05,18,13,39,18.90
2018,05,18,13,40,18.80
2018,05,18,13,41,18.70
2018,05,18,13,42,18.70
2018,05,18,13,43,18.60
2018,05,18,13,44,18.60
2018,05,18,13,45,18.70
2018,05,18,13,46,18.60
2018,05,18,13,47,18.60
2018,05,18,13,48,18.60
2018,05,18,13,49,18.60
2018,05,18,13,50,18.70
2018,05,18,13,51,18.70
2018,05,18,13,52,18.70
2018,05,18,13,53,18.70
2018,05,18,13,54,18.80
2018,05,18,13,55,18.90
2018,05,18,13,56,19.00
2018,05,18,13,57,19.00
2018,05,18,13,58,19.10
2018,05,18,13,59,19.10
2018,05,18,14,00,19.00
2018,05,18,14,01,19.00
2018,05,18,14,02,19.00
2018,05,18,14,03,19.00
2018,05,18,14,04,19.10
2018,05,18,14,05,19.10
2018,05,18,14,06,19.20
2018,05,18,14,07,19.10
2018,05,18,14,08,19.20
2018,05,18,14,09,19.20
2018,05,18,14,10,19.30
2018,05,18,14,11,19.30
2018,05,18,14,12,19.30
2018,05,18,14,13,19.30
2018,05,18,14,14,19.30
2018,05,18,14,15,19.30
2018,05,18,14,16,19.20
2018,05,18,14,17,19.10
2018,05,18,14,18,19.10
2018,05,18,14,19,19.00
2018,05,18,14,20,18.90
2018,05,18,14,21,18.80
2018,05,18,14,22,18.80
2018,05,18,14,23,18.80
2018,05,18,14,24,18.80
2018,05,18,14,25,18.80
2018,05,18,14,26,18.90
2018,05,18,14,27,19.00
2018,05,18,14,28,18.90
2018,05,18,14,29,18.90
2018,05,18,14,30,18.90
2018,05,18,14,31,18.90
2018,05,18,14,32,19.00
2018,05,18,14,33,19.00
2018,05,18,14,34,19.10
2018,05,18,14,35,19.20
2018,05,18,14,36,19.20
2018,05,18,14,37,19.20
2018,05,18,14,38,19.20
2018,05,18,14,39,19.20
2018,05,18,14,40,19.20
2018,05,18,14,41,19.20
2018,05,18,14,42,19.20
2018,05,18,14,43,19.20
2018,05,18,14,44,19.30
2018,05,18,14,45,19.40
2018,05,18,14,46,19.50
2018,05,18,14,47,19.50
2018,05,18,14,48,19.60
2018,05,18,14,49,19.60
2018,05,18,14,50,19.60
2018,05,18,14,51,19.60
2018,05,18,14,52,19.50
2018,05,18,14,53,19.40
2018,05,18,14,54,19.40
2018,05,18,14,55,19.40
2018,05,18,14,56,19.40
2018,05,18,14,57,19.40
2018,05,18,14,58,19.40
2018,05,18,14,59,19.40
2018,05,18,15,00,19.40
2018,05,18,15,01,19.40
2018,05,18,15,02,19.40
2018,05,18,15,03,19.50
2018,05,18,15,04,19.50
2018,05,18,15,05,19.40
2018,05,18,15,06,19.40
2018,05,18,15,07,19.40
2018,05,18,15,08,19.40
2018,05,18,15,09,19.40
2018,05,18,15,10,19.40
2018,05,18,15,11,19.40
2018,05,18,15,12,19.40
2018,05,18,15,13,19.50
2018,05,18,15,14,19.60
2018,05,18,15,15,19.50
2018,05,18,15,16,19.40
2018,05,18,15,17,19.30
2018,05,18,15,18,19.20
2018,05,18,15,19,19.10
2018,05,18,15,20,18.90
2018,05,18,15,21,18.90
2018,05,18,15,22,18.90
2018,05,18,15,23,18.90
2018,05,18,15,24,19.00
2018,05,18,15,25,19.00
2018,05,18,15,26,19.00
2018,05,18,15,27,19.10
2018,05,18,15,28,19.10
2018,05,18,15,29,19.20
2018,05,18,15,30,19.20
2018,05,18,15,31,19.30
2018,05,18,15,32,19.30
2018,05,18,15,33,19.20
2018,05,18,15,34,19.20
2018,05,18,15,35,19.20
2018,05,18,15,36,19.20
2018,05,18,15,37,19.20
2018,05,18,15,38,19.30
2018,05,18,15,39,19.30
2018,05,18,15,40,19.30
2018,05,18,15,41,19.30
2018,05,18,15,42,19.40
2018,05,18,15,43,19.40
2018,05,18,15,44,19.40
2018,05,18,15,45,19.40
2018,05,18,15,46,19.40
2018,05,18,15,47,19.40
2018,05,18,15,48,19.40
2018,05,18,15,49,19.50
2018,05,18,15,50,19.50
2018,05,18,15,51,19.70
2018,05,18,15,52,19.70
2018,05,18,15,53,19.80
2018,05,18,15,54,19.80
2018,05,18,15,55,19.80
2018,05,18,15,56,19.80
2018,05,18,15,57,19.80
2018,05,18,15,58,19.80
2018,05,18,15,59,19.80
2018,05,18,16,00,19.80
2018,05,18,16,01,19.80
2018,05,18,16,02,19.80
2018,05,18,16,03,19.80
2018,05,18,16,04,19.80
2018,05,18,16,05,19.90
2018,05,18,16,06,19.90
2018,05,18,16,07,19.90
2018,05,18,16,08,20.00
2018,05,18,16,09,20.00
2018,05,18,16,10,20.10
2018,05,18,16,11,20.10
2018,05,18,16,12,20.10
2018,05,18,16,13,20.10
2018,05,18,16,14,20.00
2018,05,18,16,15,20.00
2018,05,18,16,16,19.90
2018,05,18,16,17,19.90
2018,05,18,16,18,19.90
2018,05,18,16,19,19.90
2018,05,18,16,20,20.00
2018,05,18,16,21,20.10
2018,05,18,16,22,20.10
2018,05,18,16,23,20.20
2018,05,18,16,24,20.30
2018,05,18,16,25,20.30
2018,05,18,16,26,20.40
2018,05,18,16,27,20.40
2018,05,18,16,28,20.40
2018,05,18,16,29,20.40
2018,05,18,16,30,20.30
2018,05,18,16,31,20.20
2018,05,18,16,32,20.20
2018,05,18,16,33,20.20
2018,05,18,16,34,20.20
2018,05,18,16,35,20.20
2018,05,18,16,36,20.20
2018,05,18,16,37,20.20
2018,05,18,16,38,20.10
2018,05,18,16,39,20.10
2018,05,18,16,40,20.10
2018,05,18,16,41,20.10
2018,05,18,16,42,20.00
2018,05,18,16,43,19.90
2018,05,18,16,44,19.80
2018,05,18,16,45,19.60
2018,05,18,16,46,19.50
2018,05,18,16,47,19.40
2018,05,18,16,48,19.40
2018,05,18,16,49,19.30
2018,05,18,16,50,19.30
2018,05,18,16,51,19.20
2018,05,18,16,52,19.20
2018,05,18,16,53,19.10
2018,05,18,16,54,19.10
2018,05,18,16,55,19.10
2018,05,18,16,56,19.20
2018,05,18,16,57,19.20
2018,05,18,16,58,19.30
2018,05,18,16,59,19.30
2018,05,18,17,00,19.40
2018,05,18,17,01,19.40
2018,05,18,17,02,19.40
2018,05,18,17,03,19.40
2018,05,18,17,04,19.30
2018,05,18,17,05,19.30
2018,05,18,17,06,19.40
2018,05,18,17,07,19.40
2018,05,18,17,08,19.40
2018,05,18,17,09,19.40
2018,05,18,17,10,19.40
2018,05,18,17,11,19.40
2018,05,18,17,12,19.40
2018,05,18,17,13,19.40
2018,05,18,17,14,19.50
2018,05,18,17,15,19.50
2018,05,18,17,16,19.60
2018,05,18,17,17,19.70
2018,05,18,17,18,19.70
2018,05,18,17,19,19.70